SCP
0 -0 0 0 0 0 0 0 0 0 0 -0 -0 -0 -0 -0 -0 0 0 0 0 0 0 0 0 0 0 0 0 -0 -0 -0 0 -0 -0 0 0 -0 0 0 -0 -0 0
0 0 0 0 0 0 0 0 0 -0 -0 -0 -0 -0 -0 -0 0 0 -0 0 0 0 0 0 0 0 0 0 -0 -0 0 -0 -0 -0 -0 -0 0 0 -0 -0 -0 0 0
0 0 0 0 0 0 -0 -0 -0 0 0 -0 -0 -0 -0 -0 -0 0 -0 0 -0 0 0 -0 0 0 0 0 -0 -0 -0 0 0 0 0 -0 0 -0 -0 -0 0 -0 -0
-0 -0 -0 0 0 0 -0 0 -0 0 0 -0 -0 -0 -0 0 0 0 0 0 0 -0 0 -0 -0 -0 -0 -0 -0 -0 0 0 0 0 0 0 -0 0 -0 0 0 0 0
0 -0 -0 -0 -0 -0 -0 0 0 -0 0 -0 -0 -0 -0 0 -0 0 0 0 0 0 0 0 0 -0 0 -0 0 0 0 0 0 0 0 0 0 0 0 0 0 -0 -0
-0 -0 -0 -0 -0 -0 -0 -0 0 0 0 -0 -0 -0 -0 -0 0 0 0 -0 -0 -0 0 0 0 0 0 0 0 0 0 0 0 0 0 0 0 0 -0 0 0 -0 -0
-0 -0 -0 0 -0 -0 -0 -0 -0 0 -0 -0 -0 -0 -0 -0 0 0 0 0 -0 0 0 0 0 0 0 0 0 0 0 0 0 0 0 0 0 0 0 -0 0 -0 -0
0 -0 -0 -0 0 -0 -0 -0 -0 -0 -0 -0 -0 -0 -0 -0 -0 0 0 0 0 0 0 0 0 0 0 0 0 0 0 0 0 0 0 0 0 0 0 0 0 0 -0
-0 0 0 -0 -0 -0 0 -0 -0 -0 -0 -0 -0 -0 -0 -0 -0 0 0 0 0 0 0 0 0 0 0 0 0 0 0 0 0 0 0 0 0 0 0 0 0 0 0
0 -0 0 0 0 -0 -0 -0 -0 0 -0 -0 0 -0 -0 0 -0 0 -0 0 0 0 0 0 0 0 0 0 0 0 0 0 0 0 0 0 0 0 0 0 0 0 0
0 -0 -0 -0 -0 -0 -0 -0 -0 -0 -0 -0 -0 -0 0 0 0 0 0 0 0 0 0 0 0 0 0 0 0 0 0 0 0 0 0 0 0 0 0 0 0 0 0
-0 0 0 -0 -0 0 -0 -0 0 0 -0 -0 -0 -0 0 0 0 0 0 0 0 0 0 0 0 0 -0 0 0 0 0 0 0 0 0 0 0 0 0 0 0 0 0
0 -0 0 -0 0 0 0 0 0 -0 -0 -0 0 0 0 0 0 0 0 0 0 0 0 0 0 0 0 0 0 0 0 0 0 0 0 0 0 0 0 0 0 0 0
0 0 -0 -0 0 0 0 0 -0 0 0 -0 0 0 0 0 0 0 0 0 0 0 0 0 0 0 0 0 0 0 0 0 0 0 0 0 0 0 0 0 0 0 0
0 0 -0 -0 0 0 0 0 0 0 0 0 0 0 0 0 0 0 0 0 0 0 0 0 0 0 0 0 0 0 0 0 0 0 0 0 0 0 0 0 0 0 0
0 0 -0 0 0 0 0 0 0 0 0 0 0 0 0 0 0 0 0 0 0 0 0 0 0 0 0 0 0 0 0 0 0 0 0 0 0 0 0 0 0 0 0
0 -0 0 0 0 0 0 0 0 0 0 0 -0 0 0 0 0 0 0 0 0 0 0 0 0 0 0 0 0 0 0 0 0 0 0 0 0 0 0 0 1 0 0
-0 -0 -0 0 0 0 0 0 0 0 0 0 0 0 0 0 0 0 0 0 0 0 0 0 0 0 0 0 0 0 0 0 0 0 0 0 0 0 0 0 0 0 0
-0 -0 -0 0 0 0 0 0 0 0 0 0 0 0 0 0 0 0 0 0 0 0 0 0 0 0 0 0 0 0 0 0 0 0 0 0 0 0 0 0 0 0 0
0 -0 0 0 -0 -0 -0 0 0 0 0 0 0 0 0 0 0 0 0 0 0 0 0 0 0 0 0 0 0 0 0 0 0 0 0 0 0 0 0 0 0 0 0
-0 -0 -0 0 0 0 0 0 0 0 0 0 0 0 0 0 0 0 0 0 0 0 0 0 0 0 0 0 0 0 0 0 0 0 0 0 0 0 0 0 0 0 0
-0 -0 -0 0 0 0 0 0 0 0 0 0 0 0 0 0 0 0 0 0 0 0 0 0 0 0 0 0 0 0 0 0 0 0 0 0 0 0 -0 0 -0 0 0
0 -0 -0 0 -0 0 0 0 0 0 0 0 0 0 -0 0 0 0 0 0 0 0 0 0 0 0 0 0 0 0 0 0 0 0 -0 -0 -0 -0 -0 -0 -0 -0 0
0 0 0 -0 -0 0 0 0 0 0 0 0 0 0 0 0 0 0 0 0 0 0 0 0 0 0 0 0 0 0 0 0 0 0 0 0 -0 -0 -0 -0 -0 -0 -0
-0 0 -0 -0 -0 0 0 0 0 0 0 0 0 0 0 0 0 0 0 0 0 0 0 0 0 0 0 0 0 0 0 0 0 0 0 0 0 0 0 -0 -0 0 -0
0 0 0 0 -0 0 0 0 0 0 0 0 0 0 0 0 0 0 0 0 0 0 0 0 0 0 0 0 0 0 0 0 0 0 0 0 0 0 0 0 0 -0 -0
Wind_Speed_500mb
24 23 27 24 24 24 22 22 23 22 24 25 26 26 27 27 28 29 32 32 30 31 33 40 42 44 42 40 37 36 35 33 34 35 33 35 37 37 38 38 38 28 32
30 25 27 24 22 21 19 18 19 20 21 22 24 25 26 27 28 31 31 31 39 41 38 37 37 38 37 36 34 31 32 33 36 37 36 34 34 36 34 33 33 34 32
30 26 27 22 17 16 16 15 15 16 18 20 21 22 23 26 28 31 30 37 37 36 36 35 35 35 34 30 30 29 30 33 40 46 42 31 32 32 35 34 34 33 34
30 26 23 22 14 14 13 13 15 15 15 17 19 21 22 24 27 27 30 34 34 36 34 35 36 31 31 29 29 31 32 32 34 36 28 32 30 33 32 34 36 37 35
31 27 23 19 16 17 17 15 15 14 18 20 19 22 23 24 26 30 31 34 33 34 32 30 31 31 31 31 30 32 32 33 45 29 26 28 30 32 32 35 33 32 31
28 23 23 19 19 20 20 20 19 19 19 21 23 25 24 25 24 27 30 29 31 30 30 28 26 28 29 29 30 31 32 42 31 29 29 28 28 32 29 29 30 27 28
26 22 19 21 19 19 23 23 24 21 22 26 25 27 27 26 25 26 27 28 29 30 30 30 30 29 29 30 30 31 33 38 28 27 29 27 26 29 30 32 30 28 26
26 24 17 20 20 20 22 23 23 24 27 27 27 28 30 28 25 26 27 28 30 31 30 30 31 32 32 30 30 30 30 36 29 26 28 26 27 24 23 23 22 22 21
24 20 20 16 18 20 22 23 25 28 31 29 28 29 33 26 27 25 27 28 28 32 35 33 32 31 33 32 30 29 29 36 26 27 22 21 27 25 24 24 23 23 22
23 17 20 19 20 22 19 22 25 27 30 32 32 32 31 23 23 25 26 24 28 31 31 29 29 30 32 31 29 28 34 36 22 25 17 24 25 24 21 23 22 22 21
21 18 18 16 19 20 21 22 21 25 28 29 28 32 30 22 25 23 23 25 28 27 27 27 28 29 30 30 27 31 33 16 18 20 12 22 23 22 21 22 22 22 22
21 19 18 17 19 21 16 19 26 23 23 24 25 28 27 20 24 20 24 25 26 27 25 26 25 27 27 16 15 27 15 16 16 19 12 17 20 20 20 22 22 22 23
23 18 17 18 20 18 19 19 20 21 22 23 26 25 25 20 20 18 20 19 20 24 14 15 15 16 16 18 20 17 17 18 16 15 14 17 17 20 21 22 23 24 25
23 21 19 20 20 21 21 19 23 25 23 20 23 27 25 19 19 19 19 22 22 14 16 15 12 15 15 19 19 20 19 17 15 15 13 17 19 21 22 23 24 26 28
26 22 21 21 20 21 23 21 24 25 23 21 21 25 21 15 19 19 22 18 18 13 11 13 13 14 15 16 16 17 16 17 18 15 12 20 21 23 25 27 29 31 30
27 26 25 23 21 23 21 24 25 24 22 23 22 21 22 16 20 17 18 13 13 11 10 11 15 15 15 11 11 12 14 14 16 19 15 18 24 26 28 30 31 29 29
28 29 30 27 25 26 26 25 23 20 21 22 22 23 21 16 18 17 10 12 12 13 12 11 12 16 13 14 13 11 11 11 11 14 16 15 19 27 27 28 26 25 26
30 32 31 27 28 27 24 25 24 22 21 21 18 16 15 13 17 13 11 14 13 9 9 11 13 12 12 11 9 9 8 10 9 11 13 14 12 12 20 21 21 23 23
30 34 32 29 28 26 27 21 22 22 19 17 17 16 17 16 17 16 14 13 12 10 12 12 12 11 11 8 8 8 8 10 10 9 9 10 7 11 9 13 17 19 20
31 32 31 27 28 28 24 23 20 17 17 16 16 15 18 17 16 18 15 13 13 11 11 11 11 8 8 6 7 7 9 9 10 10 8 9 5 8 7 8 5 6 13
31 32 32 29 30 29 24 23 20 18 19 18 16 19 20 16 13 18 13 10 15 12 13 11 7 7 6 6 7 9 8 10 9 9 7 6 1 5 3 2 7 3 8
34 33 30 29 33 32 25 23 21 20 19 16 14 18 18 17 15 13 18 13 17 11 11 8 10 8 7 9 7 8 11 11 10 9 6 5 4 3 3 4 4 7 8
34 33 31 31 32 34 26 25 26 23 22 18 18 14 13 15 17 16 15 17 16 16 7 7 7 12 7 9 12 5 8 7 10 7 7 5 5 4 3 3 6 8 12
35 33 30 30 32 34 29 26 27 19 15 13 13 13 13 13 16 18 19 16 16 14 13 7 6 10 13 7 10 11 12 8 3 15 7 4 6 3 2 3 6 8 15
35 34 32 31 35 30 30 27 24 20 14 14 15 17 16 15 17 17 23 20 19 10 12 12 8 10 7 9 8 6 11 11 11 3 10 6 5 2 3 5 4 9 13
36 34 33 33 36 35 31 27 28 24 19 18 14 12 16 14 15 20 16 20 24 15 13 10 14 8 9 7 7 8 8 7 9 7 4 4 3 0 2 4 4 7 12
Wind_Direction_500mb
146 149 131 124 119 121 116 109 106 99 99 99 94 93 93 91 92 89 93 90 93 98 95 94 94 94 97 95 89 88 90 89 87 85 88 84 81 83 89 87 79 91 91
143 144 134 128 123 115 111 115 118 109 99 97 97 96 96 93 93 92 92 91 98 98 96 99 97 97 98 96 92 92 89 86 86 84 78 77 83 83 90 102 102 90 91
136 147 135 132 127 122 116 106 105 107 97 102 96 94 96 98 96 94 96 97 100 98 98 99 96 96 94 98 94 86 89 89 84 77 73 79 78 85 84 88 88 87 86
138 137 141 134 128 122 126 125 110 110 116 110 102 93 95 99 98 100 101 104 102 102 98 96 89 95 95 96 94 88 85 86 88 76 100 83 80 85 83 84 82 79 78
137 140 157 138 128 119 110 113 118 110 109 113 105 109 104 109 97 108 103 108 106 103 103 97 91 88 89 88 91 87 86 82 77 76 75 79 84 83 85 80 76 83 83
129 140 134 128 125 116 116 109 120 111 108 116 113 108 102 109 115 110 108 104 104 98 96 95 90 91 86 86 88 86 81 81 76 71 72 70 71 80 78 81 77 77 82
136 131 130 129 122 112 110 112 118 118 113 114 115 110 106 104 102 114 112 107 99 95 96 93 88 87 84 84 84 82 82 84 81 74 67 71 82 85 74 74 77 71 82
129 128 124 123 116 114 108 110 111 117 119 122 117 119 107 113 123 123 111 102 98 95 93 90 88 84 82 83 83 82 81 89 79 73 75 73 78 82 78 73 69 69 75
128 128 127 116 113 112 108 108 113 117 122 127 129 121 109 102 110 120 115 110 100 96 94 87 84 82 78 77 80 80 81 84 77 83 66 71 75 77 76 75 73 72 71
130 139 119 138 113 110 103 109 115 121 128 128 133 129 116 113 111 110 114 112 106 103 92 86 78 76 74 69 72 77 74 64 77 76 74 73 75 76 67 71 70 66 65
139 131 130 127 121 112 111 115 116 116 116 115 126 125 103 112 108 107 124 111 111 102 93 82 74 70 72 63 70 74 68 85 75 88 80 72 71 72 71 69 68 67 66
142 138 142 125 111 118 125 127 112 107 123 125 127 123 121 121 109 118 113 118 116 105 91 84 72 69 72 69 43 52 78 82 83 80 79 80 73 73 73 72 70 68 67
146 147 129 139 125 123 119 115 119 122 122 125 124 125 130 109 107 108 103 114 113 102 90 72 61 71 78 80 76 88 75 75 74 84 70 73 79 77 76 75 74 73 71
151 144 146 139 135 132 110 115 128 133 129 126 137 127 124 115 113 116 111 115 111 103 89 74 75 97 83 86 90 85 78 81 87 85 62 72 78 84 84 82 81 79 77
149 149 150 144 142 137 113 123 131 124 125 132 129 134 133 125 129 119 115 118 119 95 87 65 68 91 90 97 86 84 78 80 83 86 76 78 83 86 87 87 87 84 81
152 152 155 142 141 135 135 127 126 129 133 129 131 136 128 129 130 127 108 121 128 108 91 82 89 85 90 97 92 93 89 79 87 90 93 73 86 91 93 93 90 87 79
150 151 152 145 142 135 130 123 125 114 128 132 140 136 133 122 147 140 141 129 133 124 101 72 86 88 84 87 94 89 83 85 80 92 92 99 79 92 94 95 94 86 76
152 151 150 150 150 141 144 128 130 133 130 135 135 139 145 147 150 133 128 142 147 135 113 103 111 103 97 95 87 90 97 93 99 98 105 105 109 101 80 92 88 80 72
154 154 154 156 154 154 152 142 133 143 136 142 143 139 140 137 146 136 135 150 144 139 127 122 120 113 101 89 75 82 105 117 96 109 109 101 109 105 109 89 89 78 73
162 161 158 153 163 158 159 152 150 149 148 146 150 153 140 136 136 136 148 144 129 131 130 137 119 120 104 81 98 108 117 117 118 112 104 90 108 90 80 97 67 29 57
171 172 175 170 171 169 163 160 161 160 160 151 156 162 157 154 141 149 156 143 152 147 150 125 100 94 100 54 101 111 121 107 104 108 116 117 160 84 116 8 59 26 357
185 186 184 182 182 176 174 169 166 164 165 163 164 172 171 169 164 157 167 163 152 169 148 117 123 118 92 67 103 136 144 126 113 112 113 118 163 125 64 19 48 34 15
193 191 191 187 187 185 185 184 183 185 181 181 180 182 190 185 195 179 169 172 157 142 173 128 108 120 101 58 67 114 173 130 140 113 97 129 131 109 83 355 355 348 2
197 196 194 191 191 191 188 194 193 199 202 202 192 190 196 183 183 186 181 175 161 158 168 154 125 104 96 90 70 70 77 126 106 146 124 157 127 106 327 350 343 346 357
197 199 196 196 198 193 198 197 185 189 202 195 197 197 195 193 197 187 188 192 185 163 190 183 150 129 83 94 98 78 66 62 71 141 128 129 139 85 20 39 353 348 345
197 198 198 198 205 206 201 201 187 197 194 192 198 189 198 195 205 196 196 195 190 189 189 192 187 179 154 121 99 87 78 68 60 60 116 143 178 36 14 353 5 356 344
Wind_Speed_850mb
24 23 27 24 24 24 22 22 23 22 24 25 26 26 27 27 28 29 32 32 30 31 33 40 42 44 42 40 37 36 35 33 34 35 33 35 37 37 38 38 38 28 32
30 25 27 24 22 21 19 18 19 20 21 22 24 25 26 27 28 31 31 31 39 41 38 37 37 38 37 36 34 31 32 33 36 37 36 34 34 36 34 33 33 34 32
30 26 27 22 17 16 16 15 15 16 18 20 21 22 23 26 28 31 30 37 37 36 36 35 35 35 34 30 30 29 30 33 40 46 42 31 32 32 35 34 34 33 34
30 26 23 22 14 14 13 13 15 15 15 17 19 21 22 24 27 27 30 34 34 36 34 35 36 31 31 29 29 31 32 32 34 36 28 32 30 33 32 34 36 37 35
31 27 23 19 16 17 17 15 15 14 18 20 19 22 23 24 26 30 31 34 33 34 32 30 31 31 31 31 30 32 32 33 45 29 26 28 30 32 32 35 33 32 31
28 23 23 19 19 20 20 20 19 19 19 21 23 25 24 25 24 27 30 29 31 30 30 28 26 28 29 29 30 31 32 42 31 29 29 28 28 32 29 29 30 27 28
26 22 19 21 19 19 23 23 24 21 22 26 25 27 27 26 25 26 27 28 29 30 30 30 30 29 29 30 30 31 33 38 28 27 29 27 26 29 30 32 30 28 26
26 24 17 20 20 20 22 23 23 24 27 27 27 28 30 28 25 26 27 28 30 31 30 30 31 32 32 30 30 30 30 36 29 26 28 26 27 24 23 23 22 22 21
24 20 20 16 18 20 22 23 25 28 31 29 28 29 33 26 27 25 27 28 28 32 35 33 32 31 33 32 30 29 29 36 26 27 22 21 27 25 24 24 23 23 22
23 17 20 19 20 22 19 22 25 27 30 32 32 32 31 23 23 25 26 24 28 31 31 29 29 30 32 31 29 28 34 36 22 25 17 24 25 24 21 23 22 22 21
21 18 18 16 19 20 21 22 21 25 28 29 28 32 30 22 25 23 23 25 28 27 27 27 28 29 30 30 27 31 33 16 18 20 12 22 23 22 21 22 22 22 22
21 19 18 17 19 21 16 19 26 23 23 24 25 28 27 20 24 20 24 25 26 27 25 26 25 27 27 16 15 27 15 16 16 19 12 17 20 20 20 22 22 22 23
23 18 17 18 20 18 19 19 20 21 22 23 26 25 25 20 20 18 20 19 20 24 14 15 15 16 16 18 20 17 17 18 16 15 14 17 17 20 21 22 23 24 25
23 21 19 20 20 21 21 19 23 25 23 20 23 27 25 19 19 19 19 22 22 14 16 15 12 15 15 19 19 20 19 17 15 15 13 17 19 21 22 23 24 26 28
26 22 21 21 20 21 23 21 24 25 23 21 21 25 21 15 19 19 22 18 18 13 11 13 13 14 15 16 16 17 16 17 18 15 12 20 21 23 25 27 29 31 30
27 26 25 23 21 23 21 24 25 24 22 23 22 21 22 16 20 17 18 13 13 11 10 11 15 15 15 11 11 12 14 14 16 19 15 18 24 26 28 30 31 29 29
28 29 30 27 25 26 26 25 23 20 21 22 22 23 21 16 18 17 10 12 12 13 12 11 12 16 13 14 13 11 11 11 11 14 16 15 19 27 27 28 26 25 26
30 32 31 27 28 27 24 25 24 22 21 21 18 16 15 13 17 13 11 14 13 9 9 11 13 12 12 11 9 9 8 10 9 11 13 14 12 12 20 21 21 23 23
30 34 32 29 28 26 27 21 22 22 19 17 17 16 17 16 17 16 14 13 12 10 12 12 12 11 11 8 8 8 8 10 10 9 9 10 7 11 9 13 17 19 20
31 32 31 27 28 28 24 23 20 17 17 16 16 15 18 17 16 18 15 13 13 11 11 11 11 8 8 6 7 7 9 9 10 10 8 9 5 8 7 8 5 6 13
31 32 32 29 30 29 24 23 20 18 19 18 16 19 20 16 13 18 13 10 15 12 13 11 7 7 6 6 7 9 8 10 9 9 7 6 1 5 3 2 7 3 8
34 33 30 29 33 32 25 23 21 20 19 16 14 18 18 17 15 13 18 13 17 11 11 8 10 8 7 9 7 8 11 11 10 9 6 5 4 3 3 4 4 7 8
34 33 31 31 32 34 26 25 26 23 22 18 18 14 13 15 17 16 15 17 16 16 7 7 7 12 7 9 12 5 8 7 10 7 7 5 5 4 3 3 6 8 12
35 33 30 30 32 34 29 26 27 19 15 13 13 13 13 13 16 18 19 16 16 14 13 7 6 10 13 7 10 11 12 8 3 15 7 4 6 3 2 3 6 8 15
35 34 32 31 35 30 30 27 24 20 14 14 15 17 16 15 17 17 23 20 19 10 12 12 8 10 7 9 8 6 11 11 11 3 10 6 5 2 3 5 4 9 13
36 34 33 33 36 35 31 27 28 24 19 18 14 12 16 14 15 20 16 20 24 15 13 10 14 8 9 7 7 8 8 7 9 7 4 4 3 0 2 4 4 7 12
Wind_Direction_850mb
146 149 131 124 119 121 116 109 106 99 99 99 94 93 93 91 92 89 93 90 93 98 95 94 94 94 97 95 89 88 90 89 87 85 88 84 81 83 89 87 79 91 91
143 144 134 128 123 115 111 115 118 109 99 97 97 96 96 93 93 92 92 91 98 98 96 99 97 97 98 96 92 92 89 86 86 84 78 77 83 83 90 102 102 90 91
136 147 135 132 127 122 116 106 105 107 97 102 96 94 96 98 96 94 96 97 100 98 98 99 96 96 94 98 94 86 89 89 84 77 73 79 78 85 84 88 88 87 86
138 137 141 134 128 122 126 125 110 110 116 110 102 93 95 99 98 100 101 104 102 102 98 96 89 95 95 96 94 88 85 86 88 76 100 83 80 85 83 84 82 79 78
137 140 157 138 128 119 110 113 118 110 109 113 105 109 104 109 97 108 103 108 106 103 103 97 91 88 89 88 91 87 86 82 77 76 75 79 84 83 85 80 76 83 83
129 140 134 128 125 116 116 109 120 111 108 116 113 108 102 109 115 110 108 104 104 98 96 95 90 91 86 86 88 86 81 81 76 71 72 70 71 80 78 81 77 77 82
136 131 130 129 122 112 110 112 118 118 113 114 115 110 106 104 102 114 112 107 99 95 96 93 88 87 84 84 84 82 82 84 81 74 67 71 82 85 74 74 77 71 82
129 128 124 123 116 114 108 110 111 117 119 122 117 119 107 113 123 123 111 102 98 95 93 90 88 84 82 83 83 82 81 89 79 73 75 73 78 82 78 73 69 69 75
128 128 127 116 113 112 108 108 113 117 122 127 129 121 109 102 110 120 115 110 100 96 94 87 84 82 78 77 80 80 81 84 77 83 66 71 75 77 76 75 73 72 71
130 139 119 138 113 110 103 109 115 121 128 128 133 129 116 113 111 110 114 112 106 103 92 86 78 76 74 69 72 77 74 64 77 76 74 73 75 76 67 71 70 66 65
139 131 130 127 121 112 111 115 116 116 116 115 126 125 103 112 108 107 124 111 111 102 93 82 74 70 72 63 70 74 68 85 75 88 80 72 71 72 71 69 68 67 66
142 138 142 125 111 118 125 127 112 107 123 125 127 123 121 121 109 118 113 118 116 105 91 84 72 69 72 69 43 52 78 82 83 80 79 80 73 73 73 72 70 68 67
146 147 129 139 125 123 119 115 119 122 122 125 124 125 130 109 107 108 103 114 113 102 90 72 61 71 78 80 76 88 75 75 74 84 70 73 79 77 76 75 74 73 71
151 144 146 139 135 132 110 115 128 133 129 126 137 127 124 115 113 116 111 115 111 103 89 74 75 97 83 86 90 85 78 81 87 85 62 72 78 84 84 82 81 79 77
149 149 150 144 142 137 113 123 131 124 125 132 129 134 133 125 129 119 115 118 119 95 87 65 68 91 90 97 86 84 78 80 83 86 76 78 83 86 87 87 87 84 81
152 152 155 142 141 135 135 127 126 129 133 129 131 136 128 129 130 127 108 121 128 108 91 82 89 85 90 97 92 93 89 79 87 90 93 73 86 91 93 93 90 87 79
150 151 152 145 142 135 130 123 125 114 128 132 140 136 133 122 147 140 141 129 133 124 101 72 86 88 84 87 94 89 83 85 80 92 92 99 79 92 94 95 94 86 76
152 151 150 150 150 141 144 128 130 133 130 135 135 139 145 147 150 133 128 142 147 135 113 103 111 103 97 95 87 90 97 93 99 98 105 105 109 101 80 92 88 80 72
154 154 154 156 154 154 152 142 133 143 136 142 143 139 140 137 146 136 135 150 144 139 127 122 120 113 101 89 75 82 105 117 96 109 109 101 109 105 109 89 89 78 73
162 161 158 153 163 158 159 152 150 149 148 146 150 153 140 136 136 136 148 144 129 131 130 137 119 120 104 81 98 108 117 117 118 112 104 90 108 90 80 97 67 29 57
171 172 175 170 171 169 163 160 161 160 160 151 156 162 157 154 141 149 156 143 152 147 150 125 100 94 100 54 101 111 121 107 104 108 116 117 160 84 116 8 59 26 357
185 186 184 182 182 176 174 169 166 164 165 163 164 172 171 169 164 157 167 163 152 169 148 117 123 118 92 67 103 136 144 126 113 112 113 118 163 125 64 19 48 34 15
193 191 191 187 187 185 185 184 183 185 181 181 180 182 190 185 195 179 169 172 157 142 173 128 108 120 101 58 67 114 173 130 140 113 97 129 131 109 83 355 355 348 2
197 196 194 191 191 191 188 194 193 199 202 202 192 190 196 183 183 186 181 175 161 158 168 154 125 104 96 90 70 70 77 126 106 146 124 157 127 106 327 350 343 346 357
197 199 196 196 198 193 198 197 185 189 202 195 197 197 195 193 197 187 188 192 185 163 190 183 150 129 83 94 98 78 66 62 71 141 128 129 139 85 20 39 353 348 345
197 198 198 198 205 206 201 201 187 197 194 192 198 189 198 195 205 196 196 195 190 189 189 192 187 179 154 121 99 87 78 68 60 60 116 143 178 36 14 353 5 356 344